Regional Weather Roundup
Issued by NWS Wakefield, VA

Home | Current Version | Previous Version | Graphics & Text | Print | Product List | Glossary On
Versions: 1 2 3 4 5 6 7 8 9 10 11 12 13 14 15 16 17 18 19 20 21 22 23 24 25 26 27
000
ASUS41 KAKQ 250614
RWRAKQ

REGIONAL WEATHER ROUNDUP
NATIONAL WEATHER SERVICE WAKEFIELD VA
100 AM EST SAT FEB 25 2017

Note: "fair" indicates few or no clouds below 12,000 feet with no
significant weather and/or obstructions to visibility. * = Denotes
station may not report precipitation (e.g., rain,snow,etc.),
thunder or fog.

VAZ042-051-052>054-056-250700-
NORTHERN VIRGINIA

CITY           SKY/WX    TMP DP  RH WIND       PRES   REMARKS
WASH NATIONAL  MOCLDY    61  58  90 S13       29.78F
DULLES         MOCLDY    63  57  81 S8        29.76S
FORT BELVOIR   PTCLDY    61  56  85 SE7       29.78S
QUANTICO       PTCLDY    54  54 100 SW6       29.79S
FREDERICKSBRG* PTCLDY    62  59  89 S7        29.78S
STAFFORD*      PTCLDY    62  59  91 S6        29.82S
WARRENTON      CLOUDY    65  55  71 S12       29.76S
CULPEPER*      CLOUDY    64  58  80 S7        29.77R
MANASSAS*        N/A     65  58  78 S10G20    29.77S
LEESBURG*      CLOUDY    63  61  94 MISG      29.77R
WINCHESTER     PTCLDY    59  50  72 S3        29.74S
FRONT ROYAL*   NOT AVBL
LURAY*         NOT AVBL
$$

VAZ048-049-060>072-079>083-250700-
CENTRAL AND SOUTH CENTRAL VIRGINIA

CITY           SKY/WX    TMP DP  RH WIND       PRES   REMARKS
RICHMOND       CLEAR     61  58  90 S7        29.81R
CHESTERFIELD*  FAIR      61  45  55 S8        29.82S
PETERSBURG*    CLEAR     59  56  90 S5        29.82R
HANOVER        PTCLDY    62  55  77 VRB3      29.81S
TAPPAHANNOCK*  PTCLDY    60  60 100 SE5       29.82R
QUINTON*       FAIR      60  60 100 SE5       29.81R
CHARLOTTSVILLE CLOUDY    65  55  70 S15       29.76S
GORDONSVILLE*  CLOUDY    62  57  84 CALM      29.77R
ORANGE*        MOCLDY    61  54  77 CALM      29.78S
LOUISA*        CLOUDY    66  61  82 S6        29.77S
BUMPASS*       NOT AVBL
FARMVILLE*     CLEAR     62  58  88 S8        29.78S
CREWE*         NOT AVBL
FORT PICKETT*  NOT AVBL
CHASE CITY*    MOCLDY    62  61  94 S5        29.81R
CLARKSVILLE*   NOT AVBL
SOUTH HILL*    CLEAR     59  58  98 S6        29.87S
LAWRENCEVILLE* NOT AVBL
EMPORIA*       CLEAR     54  54 100 CALM      29.83S
$$

VAZ088>098-250700-
SOUTHEAST VIRGINIA

CITY           SKY/WX    TMP DP  RH WIND       PRES   REMARKS
NORFOLK        CLEAR     60  56  86 S6        29.81F
VIRGINIA BEACH PTCLDY    60  55  83 S8        29.81F
NORFOLK NAVAL  CLEAR     61  56  83 S6        29.83F
WEST POINT*    CLEAR     61  58  90 SE6       29.83S
SALUDA*        NOT AVBL
NEWPORT NEWS   CLEAR     60  56  86 S3        29.82F
LANGLEY AFB    PTCLDY    59  58  96 S3        29.81F
FORT EUSTIS    CLEAR     59  55  89 CALM      29.80S
WILLIAMSBURG*  CLEAR     61  59  94 CALM      29.83S
HR EXEC AP*    FAIR      57  52  82 CALM      29.80F
FRANKLIN*      CLEAR     57  55  95 CALM      29.83S
US460-WAKEFLD  PTCLDY    57  56  96 CALM      29.82S
$$

VAZ020-022-025-037-045-250700-
WEST CENTRAL AND SOUTHWEST VIRGINIA

CITY           SKY/WX    TMP DP  RH WIND       PRES   REMARKS
STAUNTON*      CLOUDY    62  52  68 SW5       29.78S
WAYNESBORO*    NOT AVBL
HOT SPRINGS VA CLEAR     54  45  71 S10G16    29.82F
LYNCHBURG      CLOUDY    61  53  75 S9        29.79S
DANVILLE       MOCLDY    62  55  77 S6        29.79S
SOUTH BOSTON*  FAIR      62  57  83 S5        29.79
MARTINSVILLE   MOCLDY    58  51  76 CALM      29.80F
ROANOKE        PTCLDY    61  51  70 SE8       29.78F
BLACKSBURG     PTCLDY    57  51  78 S5        29.81F
DUBLIN*        PTCLDY    59  51  74 S7        29.78F
MARION*        CLEAR     58  50  73 CALM      29.77F
HILLSVILLE*    CLEAR     58  51  78 CALM      29.78F
RICHLANDS*     FAIR      59  48  67 SE10      29.73S
WISE*          MOCLDY    61  46  59 S8        29.73R
ABINGDON*      CLEAR     61  48  64 SW3       29.73S
$$

MDZ021>025-VAZ099-100-250700-
SOUTHERN MARYLAND AND THE DELMARVA PENINSULA

CITY           SKY/WX    TMP DP  RH WIND       PRES   REMARKS
PATUXENT RIVER PTCLDY    62  58  86 S12       29.80F
BAY BRIDGE APT PTCLDY    59  55  88 S12       29.80S
LEONARDTOWN    CLEAR     61  55  82 S7        29.82S
DOVER          PTCLDY    57  57 100 SE9       29.81F
GEORGETOWN     CLOUDY    58  55  90 S3        29.84S
EASTON         PTCLDY    62  56  81 S14       29.85S
CAMBRIDGE      PTCLDY    57  55  94 S7        29.82F
SALISBURY      PTCLDY    57  56  96 S5        29.83S
OCEAN CITY     CLEAR     54  52  93 SW6       29.84F
WALLOPS ISLAND CLEAR     54  54 100 S8        29.84F
ACCOMACK*      PTCLDY    58  55  91 S7        29.83S
$$

NCZ012>017-030>032-250700-
NORTH CENTRAL AND EASTERN NORTH CAROLINA

CITY           SKY/WX    TMP DP  RH WIND       PRES   REMARKS
ROANOKE RAPIDS FAIR      61  59  94 S3        29.82S
RALEIGH        PTCLDY    63  57  81 SW8       29.83R
ELIZABETH CITY CLEAR     55  54  96 SE5       29.82F
AHOSKIE*         N/A     56  55  98 CALM      29.83S
EDENTON*         N/A     56  54  92 CALM      29.83F FOG
CURRITUCK*     CLEAR     58  58 100 CALM      29.83F
KILL DEVIL HLS NOT AVBL
MANTEO         CLEAR     56  54  94 CALM      29.83F
CAPE HATTERAS  CLEAR     63  59  87 E3        29.81S FOG
TARBORO*       NOT AVBL
GOLDSBORO      PTCLDY    55  55 100 E3        29.81F FOG
WASHINGTON     PTCLDY    53  53  99 CALM      29.82F
GREENVILLE     PTCLDY    55  55 100 CALM      29.85S
NEW BERN       FOG       54  54 100 CALM      29.84S VSB 1/2
WILMINGTON     PTCLDY    55  55 100 CALM      29.83S
$$

VAZ048-250700-
ELSEWHERE

CITY           SKY/WX    TMP DP  RH WIND       PRES   REMARKS
HARRISBURG PA  MOCLDY    60  58  92 SE7       29.76R
BALTIMORE      MOCLDY    55  55 100 E6        29.78F
ANNAPOLIS      PTCLDY    55  53  93 S10       29.79F
ANDREWS AFB    CLEAR     61  57  87 S13       29.77F
PHILADELPHIA   MOCLDY    59  54  83 S6        29.83S
HENDERSON NC   PTCLDY    58  54  85 S6        29.82S
GREENSBORO     MOCLDY    63  55  75 S13       29.78F
ROCKY MOUNT    CLEAR     57  57 100 S3        29.82F
$$

VAZ100-250700-
MARINE

STATION/POSITION TIME  TEMP    WIND        PRES    WAVE   SWELL
                       AIR SEA DIR/SP/G            HT/PER HT/PER
                 (UTC) (F)     (DEG/KT/KT) (MB)    (FT/S) (FT/S)
CAPE MAY NJ      0548          160/ 10/ 14 1010.1S
LEWES DE         0548          190/  4/  5 1010.1S
OCEAN-CITY-INLET 0542          220/  6/  7 1010.9F
WACHAPREAGUE VA  0548          210/  3/  6 1010.2F
THOMAS POINT MD  0600   52 44  170/ 15/ 16   N/A
GOOSES REEF MD   0600   49 45  160/ 12/ 14 1009.7    1/ 2
COVE POINT MD    0548          190/ 10/ 11 1009.9F
SOLOMONS ISLAND  0542          190/ 11/ 13   N/A
BISHOPS HEAD MD  0548          150/ 10/ 11 1009.9F
PINEY POINT MD   0548          140/  8/  8   N/A
POTOMAC MD       0600   50 46  170/  8/  8 1008.7    1
CAMBRIDGE MD     0548          170/  7/ 11 1008.8F
LEWISETTA VA     0548          200/ 10/ 13 1009.1F
RAPPAHANNOCK LGT 0548          150/ 10/ 10 1010.4F
YORK RVR RNG VA  0548          170/ 11/ 11 1008.9F
YORKTOWN VA      0548          190/  5/  6 1009.2F
JAMESTOWN VA     0600   60 53  100/  4/  6   N/A     0
DOMINION TERM VA 0548          160/  3/  3 1009.6F
KIPTOPEKE VA     0548          160/  5/  6   N/A
CHES BAY BRIDGE  0548          180/  9/  9 1009.5F
CAPE HENRY VA    0548          160/ 10/ 15   N/A
WILLOUBY STN VA  0548          180/  9/ 10 1010.4F
S CRANEY ISL VA  0548          230/  1/  2 1009.3F
CAPE HENRY BUOY  0542      50                N/A     4/10   2/12
OFFSHORE WE BUOY 0551      51                N/A     5/ 9   2/12
64NM E OF VA BCH 0550   57 54  110/  4/  6 1009.9F   6/ 8   7/ 8
DUCK PIER NC     0548          150/  4/  5 1009.5F
44100 DUCK FRF   0535      51                N/A     6/11   3/11
44056 DUCK FRF   0530      52                N/A     4/10   2/11
OREGON INLET NC  0542          100/  3/  4 1009.6F
HATTERAS NC      0548           70/  4/  5 1009.0F
DIAMOND SHLS NC  0550   71 76  110/ 12/ 16 1009.0F   9/10   8/10
CAPE LOOKOUT NC  0600   65     340/  4/  4 1009.1F
$$




USA.gov is the U.S. government's official web portal to all federal, state and local government web resources and services.